一网星座-0250星 (ONEWEB-0250 )

导读 | 豆包AI

ONEWEB-0250是英国OneWeb公司低轨卫星互联网星座中的一员,于2021年7月1日随第八批36颗OneWeb卫星,从俄罗斯东方航天发射场搭乘联盟-2.1b火箭发射升空。作为全球低轨卫星互联网组网任务的组成部分,该卫星旨在构建高速低延时的全球宽带通信网络,助力OneWeb实现北纬50度以北地区网络覆盖,服务全球万物互联需求。

Basic Information
目录编号:
48968
目录名称:
ONEWEB-0250
国际标识:
2021-060B
轨道中心:
EARTH
卫星名称:
一网星座-0250星
卫星全名:
一网星座-0250星 (ONEWEB-0250 )
卫星状态:
在轨 (已飞行1717 天)
发射日期:
2021-07-01 UTC
国别 :
英国 (GB)
星等 :
--
Orbit Information
数据来源 国际轨道数据 AOE轨道数据
星历时间 2026-03-14T05:59:08+0800
11小时前
查看轨道信息
2026-03-13T15:00:00+0800
1天前
查看轨道信息
半长轴 7540.679km 7540.691km
偏心率 0.0002546 0.0001464
轨道倾角 87.901° 87.898°
近地点辐角 80.063° 80.607°
升交点赤经 245.790° 245.914°
平近点角 280.079° 180.988°
近地点 1160.622km 1161.45km
远地点 1164.462km 1163.658km
周期 108.611分钟 108.612分钟
每日圈数 13.258278 13.258246
Detailed Information
平衡模式:
三轴稳定
覆盖范围:
全球
运营商:
一网卫星公司
运营商所在国:
英国
制造商(研发单位):
一网卫星公司
制造商所在国:
英国
使用方式:
暂无
Satellite Introduction
OneWeb卫星网络由648颗重约125公斤的微型卫星组成,运行在1200公里的轨道上。 每颗卫星都能够提供至少每秒8千兆位的吞吐量,以使用其高吞吐量的Ku频段有效载荷为家庭和移动平台提供互联网接入。该卫星仍在工作。
2D Orbit Map
3D Orbit Map
Orbit Altitude Analysis Chart
Orbit Inclination Analysis Chart
Orbit Comprehensive Analysis Chart
View Comprehensive Chart